Home   Weather   Londrina   Past weeks

Flag for Brazil Past Weather in Londrina, Paraná, Brazil — Yesterday and Last 2 Weeks

Now
73 °F

Partly sunny.


Feels Like: 73 °F
Forecast: 69 / 82 °F
Wind: 6 mph from Southeast

Location: Londrina Aeroporto

Current Time: Jan 20, 2017 at 10:19:05 am

Latest Report: Jan 20, 2017 at 9:00 am


Visibility: N/A

Pressure: 30.09 "Hg (28.03 "Hg at 615m altitude)

Humidity: 83%

Dew Point: 68 °F

Location of LondrinaLocation

Past Weather in Londrina — Graph

°F

Londrina Temperature Yesterday

Maximum temperature yesterday: 88 °F (at 5:00 pm)
Minimum temperature yesterday: 70 °F (at 4:00 am)
Average temperature yesterday: 75 °F

High & Low Weather Summary for the Past Weeks

 TemperatureHumidityPressure
High93 °F (Jan 8, 5:00 pm)100% (Jan 8, 2:00 am)30.09 "Hg (Jan 8, 2:00 am)
Low68 °F (Jan 8, 2:00 am)47% (Jan 8, 5:00 pm)29.74 "Hg (Jan 17, 4:20 pm)
Average78 °F77%29.92 "Hg
* Reported Jan 5 9:00 am — Jan 20 9:00 am, Londrina, Weather by CustomWeather, © 2017

Note: Actual official high and low records may vary slightly from our data, if they occured in-between our weather recording intervals... More about our weather records

Advertising

Londrina Weather History for the Previous 24 Hours

Scroll right to see more
 ConditionsComfort  
Time TempWeatherWind HumidityBarometerVisibility
9:00 am
Fri, Jan 20
73 °FPartly sunny.6 mph83%30.09 "HgN/A
8:31 am70 °FPartly sunny.6 mph94%30.09 "HgN/A
8:00 am70 °FPartly sunny.3 mph94%30.09 "HgN/A
7:00 am68 °FPartly sunny.5 mph100%30.07 "HgN/A
6:37 am68 °FPassing clouds.3 mph94%30.07 "HgN/A
6:00 am68 °FClear.6 mph94%30.04 "Hg10 mi
5:00 am68 °FPassing clouds.6 mph100%30.04 "HgN/A
4:00 am70 °FPassing clouds.6 mph94%30.04 "HgN/A
3:00 am70 °FPassing clouds.8 mph94%30.04 "HgN/A
2:00 am70 °FPartly cloudy.7 mph94%30.07 "HgN/A
1:00 am70 °FPartly cloudy.7 mph94%30.07 "HgN/A
12:00 am70 °FClear.9 mph94%30.07 "Hg10 mi
11:00 pm
Thu, Jan 19
72 °FClear.10 mph88%30.07 "Hg10 mi
10:00 pm72 °FPassing clouds.9 mph88%30.04 "HgN/A
9:36 pm72 °FLight rain. Passing clouds.8 mph94%30.04 "HgN/A
9:00 pm72 °FPassing clouds.5 mph88%30.04 "Hg5 mi
8:00 pm72 °FLight rain. Partly sunny.8 mph88%30.04 "Hg4 mi
7:12 pm72 °FLight rain. Partly sunny.17 mph94%29.98 "Hg3 mi
7:00 pm79 °FScattered showers. Passing clouds.15 mph79%29.95 "HgN/A
5:00 pm88 °FScattered clouds.6 mph52%29.92 "HgN/A
4:00 pm86 °FScattered clouds.6 mph55%29.95 "HgN/A
3:00 pm84 °FScattered clouds.6 mph58%29.98 "HgN/A
2:00 pm84 °FPartly sunny.7 mph62%29.98 "HgN/A
1:00 pm82 °FBroken clouds.7 mph66%30.01 "HgN/A
12:00 pm81 °FPartly sunny.8 mph70%30.04 "HgN/A
11:35 am81 °FPartly sunny.8 mph70%30.04 "HgN/A
11:00 am77 °FPartly sunny.9 mph79%30.04 "HgN/A
10:00 am75 °FBroken clouds.7 mph78%30.04 "HgN/A
Weather by CustomWeather, © 2017

See weather overviewHow to use our weather pages